sat.trackr.live / text

‹ back to catalog

STARLINK-31010

NORAD 58519 · 2023-191M

PAYLOAD ACTIVE UNKNOWN

§ Identity

Operator
Country
US
Launch date
2023-12-07
Launch site
AFETR
Launch vehicle
Mass (kg)
RCS (m²)

Purposes: comms

External: N2YO · Heavens-Above · Gunter

§ Orbital elements

Epoch: 2026-09-19T21:57:32.516352Z

Period
94.27 min
Inclination
43.0021°
Eccentricity
0.0001291
Mean motion
15.27579821 rev/d
Perigee alt
482.2 km
Apogee alt
483.9 km
Semi-major
6,861.2 km
B*
6.0997e-5
RAAN
86.6607°
Arg perigee
269.5049°
Mean anomaly
90.5654°
Rev number
15,517

§ Raw data

STARLINK-310101 58519U 23191M   26262.91495968  .00001417  00000+0  60997-4 0  99902 58519  43.0021  86.6607 0001291 269.5049  90.5654 15.27579821155176

JSON: /api/v1/satellites/58519 · /tle

For live sub-satellite position, see the globe view (requires WebGL).

§ Visibility from observer

Set your observer location to see the next 7 days of passes ≥ 10°. The values pass through the URL so the page stays shareable.

No JS? Fill the form by hand. The geolocation button needs JavaScript.